Location: G�migny
(47.9646°N, 1.6950°E)
Time: 19:55:56
(UTC+00:00)

ATLAS 3B R/B - Pass Details

Date: 23 October 2019
Orbit: 1028 x 1167 km, 63.8° (Epoch: 07 November)

Event Time Altitude Azimuth Distance (km) Brightness Sun altitude
Rises 20:30:43 0° 246° (WSW) 3,811 6.1 -36.7°
Reaches altitude 10° 20:33:32 10° 253° (WSW) 2,846 5.4 -37.2°
Enters shadow 20:39:47 42° 323° (NW) 1,436 3.6 -38.1°
